NOAA NWS Hourly Roundups by Site

Regional Weather Roundup for Twin Cities, MN

To Select Another Site Choose from List

Select Site:  

340
ASUS43 KMPX 150410
RWRMN
WEATHER ROUNDUP FOR MINNESOTA
NATIONAL WEATHER SERVICE TWIN CITIES/CHANHASSEN MN
1100 PM CDT SUN JUL 14 2024


NOTE: "FAIR" INDICATES FEW OR NO CLOUDS BELOW 12,000 FEET WITH NO
SIGNIFICANT WEATHER AND/OR OBSTRUCTIONS TO VISIBILITY. N/A MEANS
CURRENT SKY AND/OR WEATHER CONDITIONS ARE NOT AVAILABLE.

MNZ060>063-068>070-150500-
   Twin Cities Metro

CITY           SKY/WX    TMP DP  RH WIND       PRES   REMARKS
TWIN CITIES    CLEAR     79  67  66 NW5       29.86R
ST PAUL        CLEAR     76  70  82 CALM      29.85R
BLAINE         CLEAR     77  66  69 CALM      29.86S
LAKEVILLE      CLEAR     72  66  83 CALM      29.87S
EDEN PRAIRIE   CLEAR     78  70  76 NW3       29.85S
SOUTH ST PAUL  CLEAR     76  68  75 CALM      29.85S
LAKE ELMO      CLEAR     70  68  94 CALM      29.87S
$$
MNZ001>005-007-008-013>017-022>024-027-028-150500-
   Northwest Minnesota

CITY           SKY/WX    TMP DP  RH WIND       PRES   REMARKS
BEMIDJI        MOCLDY    65  59  81 CALM      29.88S
HALLOCK        CLOUDY    70  66  88 S3        29.83S
ROSEAU         MOCLDY    68  64  88 CALM      29.85S
WARROAD        MOCLDY    70  66  88 SW3       29.85S
THIEF RVR FALL MOCLDY    71  65  81 CALM      29.87S
CROOKSTON      MOCLDY    73  57  56 SE3       29.85S
FOSSTON        MOCLDY    64  64 100 CALM      29.88R
DETROIT LAKES  CLEAR     70  64  83 CALM      29.87S
MOORHEAD       CLEAR     73  64  73 SE5       29.85S
PARK RAPIDS    PTCLDY    70  62  76 CALM      29.87F
MAHNOMEN       PTCLDY    70  64  81 SW6       29.87R
$$
MNZ006-009>011-018-025>026-150500-
   North Central Minnesota

CITY           SKY/WX    TMP DP  RH WIND       PRES   REMARKS
BAUDETTE       PTCLDY    67  61  81 CALM      29.85S
FLAG ISLAND    MOCLDY    73  57  56 W6        29.84R HAZE
INTL FALLS     CLEAR     59  57  93 CALM      29.85S
BIG FORK       PTCLDY    64  61  88 CALM      29.92F
LONGVILLE      PTCLDY    64  63  94 CALM      29.87F
GRAND RAPIDS   PTCLDY    63  61  93 CALM      29.89F
CRANE LAKE     CLEAR     61  57  88 CALM      29.89S
ORR              N/A     61  57  88 CALM      29.86S
COOK           PTCLDY    63  57  82 CALM      29.87S
WALKER         PTCLDY    63  63 100 CALM      29.88S
$$
MNZ012-019>021-037-150500-
   Northeast Minnesota

CITY           SKY/WX    TMP DP  RH WIND       PRES   REMARKS
DULUTH         CLEAR     71  59  65 NW5       29.87S
ELY            CLEAR     61  54  77 CALM      29.88F
HIBBING        CLEAR     61  59  93 NW3       29.87S
DULUTH HARBOR  CLEAR     77  63  61 N5        29.83R
TWO HARBORS    CLEAR     66  59  77 CALM      29.85S
GRAND MARAIS     N/A     71  55  56 N7        29.82S
G MARAIS ARPRT CLEAR     64  39  39 NW3       29.88S
$$
MNZ029>031-032-039>041-046>048-054>057-064-150500-
   West Central Minnesota

CITY           SKY/WX    TMP DP  RH WIND       PRES   REMARKS
FERGUS FALLS   CLEAR     70  70 100 E3        29.86F
WHEATON        CLEAR     72  66  83 SE6       29.87S
MORRIS         CLEAR     68  66  94 CALM      29.85F
ALEXANDRIA     CLEAR     68  63  84 SW5       29.90S
ELBOW LAKE     CLEAR     74  68  80 CALM      29.88F
WADENA           N/A     68  64  88 CALM      29.87F
GLENWOOD       CLEAR     72  63  73 CALM      29.89F
APPLETON       PTCLDY    72  66  83 CALM      29.86F
BENSON         CLEAR     66  64  94 CALM      29.88F
ORTONVILLE     PTCLDY    73  66  78 SE7       29.86F
MADISON        PTCLDY    75  72  88 E5        29.89S
WILLMAR        CLEAR     72  70  94 CALM      29.87F
$$
MNZ033>034-036-042>043-049>051-058-059-150500-
   Central Minnesota

CITY           SKY/WX    TMP DP  RH WIND       PRES   REMARKS
ST CLOUD       CLEAR     71  68  90 CALM      29.86F
SAUK CENTRE    CLEAR     69  69 100 CALM      29.89R
PAYNESVILLE    CLEAR     66  64  94 CALM      29.89S
AITKIN         CLEAR     61  61 100 CALM      29.87F
PINE RIVER     CLEAR     66  63  88 CALM      29.90F
BRAINERD       CLEAR     68  65  90 CALM      29.87F
STAPLES        CLEAR     73  64  73 CALM      29.87F
LONG PRAIRIE   CLEAR     68  66  94 CALM      29.90S
LITTLE FALLS   CLEAR     68  64  88 CALM      29.87F
CAMP RIPLEY    CLOUDY    69  64  86 CALM      29.84F
LITCHFIELD     CLEAR     70  64  83 CALM      29.88S
BUFFALO        PTCLDY    72  72 100 CALM      29.86F
MAPLE LAKE     CLEAR     70  67  89 CALM      29.88S
HUTCHINSON     CLEAR     73  69  87 CALM      29.89F
$$
MNZ037-044-045-052-053-150500-
   East Central Minnesota

CITY           SKY/WX    TMP DP  RH WIND       PRES   REMARKS
PRINCETON      CLEAR     72  70  94 CALM      29.88S
MORA           CLEAR     68  64  88 CALM      29.91S
CAMBRIDGE      CLEAR     70  64  83 CALM      29.87S
RUSH CITY      PTCLDY    68  60  77 CALM      29.86S
MOOSE LAKE     CLEAR     66  61  82 CALM      29.87S
HINCKLEY       CLEAR     68  66  94 CALM      29.87S
CLOQUET        CLEAR     64  59  82 W3        29.87S
MCGREGOR       CLEAR     64  61  88 CALM      29.88F
$$
MNZ071>073-080-081-089-090-097-098-150500-
   Southwest Minnesota

CITY           SKY/WX    TMP DP  RH WIND       PRES   REMARKS
MONTEVIDEO     CLEAR     73  63  68 CALM      29.88F
GRANITE FALLS  CLEAR     75  70  83 CALM      29.89S
CANBY          PTCLDY    74  70  86 CALM      29.89S
MARSHALL       CLEAR     74  72  93 SW5       29.89S
REDWOOD FALLS  CLEAR     77  69  76 CALM      29.88R
OLIVIA         CLEAR     72  68  88 CALM      29.88R
WINDOM         PTCLDY    73  66  78 CALM      29.90S
WORTHINGTON    CLEAR     75  70  84 CALM      29.93S
TRACY          PTCLDY    72  72 100 S3        29.89S
SLAYTON        CLEAR     73  65  77 CALM      29.93S
$$
MNZ065>067-074>077-082>085-091>093-150500-
   South Central Minnesota

CITY           SKY/WX    TMP DP  RH WIND       PRES   REMARKS
MANKATO        CLEAR     77  70  79 CALM      29.88F
ST JAMES       CLEAR     73  73 100 SW3       29.88S
FAIRMONT       CLEAR     75  71  87 CALM      29.90F
GLENCOE        CLEAR     73  70  88 CALM      29.87S
FARIBAULT      CLEAR     73  70  88 CALM      29.88S
OWATONNA       CLEAR     72  70  94 CALM      29.88S
WASECA         CLEAR     72  70  94 CALM      29.91S
ALBERT LEA     CLEAR     72  70  94 CALM      29.90S
$$
MNZ078>079-086>088-094>096-150500-
   Southeast Minnesota

CITY           SKY/WX    TMP DP  RH WIND       PRES   REMARKS
ROCHESTER      CLEAR     75  71  87 NW3       29.88S
RED WING       CLEAR     73  70  88 CALM      29.84S
STANTON        CLEAR     72  69  92 CALM      29.87R
DODGE CENTER   CLEAR     72  72 100 CALM      29.89S
WINONA         CLEAR     73  73 100 CALM      29.85S
AUSTIN         CLEAR     75  72  88 CALM      29.89S
PRESTON        CLEAR     75  75 100 CALM      29.87S
$$
ABBREVIATIONS USED IN REMARKS
   TC - TEMPERATURES IN CELSIUS
  WCI - WIND CHILL INDEX
   HX - HEAT INDEX
  VSB - VISIBILITY
$$



 

View Past Reports for Twin Cities, MN.

Products Courtesy of NOAA-NWS
NWS Information Parsing Script by Ken True at Saratoga Weather - Script by SE Lincoln Weather.